ASTRA 1N

Last updated on Tue Oct 08 2024 00:02:39 GMT+0000 (Coordinated Universal Time)

1 37775U 11041A 24281.35882881 .00000131 00000+0 00000+0 0 9999 2 37775 0.0744 40.3045 0001330 101.7908 22.7963 1.00273987 38338
UTC large
Height (km)
Speed (km/s)
/
Latitude / Longitude
Inclination (degrees)
Orbital Period (minutes)
Azimuth
Elevation
Range (km)
Doppler Factor

Next 0 passes for location: London (51.5072 / 0.1276)

Sorry there are no passes over London.